Macomb, IL

12:24 AM CST on December 18, 2017 (GMT -0600)
Macomb Municipal

Weather History for KMQB - July, 2013

Change the Weather History Date:

Saturday, July 13, 2013

  Actual Average (KBRL) Record (KBRL)
Temperature  
Mean Temperature 70 °F -  
Max Temperature 84 °F 85 °F 108 °F (1936)
Min Temperature 57 °F 66 °F 53 °F (1964)
Cooling Degree Days 6    
Growing Degree Days 20 (Base 50)    
Moisture  
Dew Point 60 °F    
Average Humidity 68    
Maximum Humidity 93    
Minimum Humidity 40    
Precipitation  
Precipitation 0.00 in - - ()
Sea Level Pressure  
Sea Level Pressure 30.12 in    
Wind  
Wind Speed 3 mph (ESE)    
Max Wind Speed 10 mph    
Max Gust Speed -    
Visibility 10 miles    
Events      
Averages and records for this station are not official NWS values.
T = Trace of Precipitation, MM = Missing Value Source: NWS Daily Summary

Daily Weather History Graph

Daily Weather History Graph

Search for Another Location

Airport or City:

Trip Planner

Search our weather history database for the weather conditions in past years. The results will help you decide how hot, cold, wet, or windy it might be!

Date:

Astronomy

Jul. 13, 2013 Rise Set
Actual Time 5:43 AM CDT 8:32 PM CDT
Civil Twilight 5:11 AM CDT 9:05 PM CDT
Nautical Twilight 4:30 AM CDT 9:45 PM CDT
Astronomical Twilight 3:43 AM CDT 10:32 PM CDT
Moon 11:01 AM CDT (7/13) 11:12 PM CDT (7/13)
Length of Visible Light 15h 53m
Length of Day
14h 49m
Waxing Crescent, 26% of the Moon is Illuminated
Jul 13
Waxing Crescent
Jul 15
First Quarter
Jul 22
Full
Jul 29
Last Quarter
Aug 6
New

Hourly Weather History & Observations

Time (CDT) Temp. Heat Index Dew Point Humidity Pressure Visibility Wind Dir Wind Speed Gust Speed Precip Events Conditions
12:15 AM 61.3 °F - 58.1 °F 89% 30.10 in 10.0 mi ESE 3.5 mph - N/A   Clear
12:35 AM 62.1 °F - 58.6 °F 89% 30.10 in 10.0 mi SE 3.5 mph - N/A   Clear
12:55 AM 60.6 °F - 57.0 °F 88% 30.10 in 10.0 mi Calm Calm - N/A   Clear
1:15 AM 60.6 °F - 57.2 °F 88% 30.10 in 10.0 mi Calm Calm - N/A   Clear
1:35 AM 60.8 °F - 57.4 °F 88% 30.12 in 10.0 mi WNW 3.5 mph - N/A   Clear
1:55 AM 60.4 °F - 57.4 °F 90% 30.12 in 10.0 mi Calm Calm - N/A   Clear
2:15 AM 58.6 °F - 55.8 °F 90% 30.13 in 10.0 mi Calm Calm - N/A   Clear
2:35 AM 59.9 °F - 56.5 °F 88% 30.13 in 10.0 mi Calm Calm - N/A   Clear
2:55 AM 58.8 °F - 55.8 °F 90% 30.13 in 10.0 mi Calm Calm - N/A   Clear
3:15 AM 58.6 °F - 55.8 °F 90% 30.12 in 10.0 mi ENE 3.5 mph - N/A   Clear
3:35 AM 58.1 °F - 55.6 °F 91% 30.13 in 10.0 mi Calm Calm - N/A   Clear
3:55 AM 58.1 °F - 55.6 °F 91% 30.12 in 10.0 mi Calm Calm - N/A   Clear
4:15 AM 57.4 °F - 54.7 °F 91% 30.11 in 10.0 mi Calm Calm - N/A   Clear
4:35 AM 57.7 °F - 54.9 °F 90% 30.11 in 10.0 mi Calm Calm - N/A   Clear
4:55 AM 58.1 °F - 55.8 °F 92% 30.11 in 10.0 mi East 3.5 mph - N/A   Clear
5:15 AM 58.1 °F - 55.8 °F 92% 30.12 in 10.0 mi NE 3.5 mph - N/A   Clear
5:35 AM 57.4 °F - 55.2 °F 92% 30.12 in 10.0 mi Calm Calm - N/A   Clear
5:55 AM 57.2 °F - 54.9 °F 92% 30.13 in 10.0 mi Calm Calm - N/A   Clear
6:15 AM 57.6 °F - 55.6 °F 93% 30.13 in 10.0 mi Calm Calm - N/A   Clear
6:35 AM 59.4 °F - 57.2 °F 93% 30.13 in 10.0 mi Calm Calm - N/A   Clear
6:55 AM 61.7 °F - 58.8 °F 90% 30.13 in 10.0 mi Calm Calm - N/A   Clear
7:15 AM 64.6 °F - 60.4 °F 86% 30.14 in 10.0 mi Calm Calm - N/A   Clear
7:35 AM 66.2 °F - 61.9 °F 86% 30.15 in 10.0 mi Calm Calm - N/A   Clear
7:55 AM 68.0 °F - 63.0 °F 84% 30.15 in 10.0 mi Calm Calm - N/A   Clear
8:15 AM 70.0 °F - 63.9 °F 81% 30.14 in 10.0 mi Calm Calm - N/A   Clear
8:35 AM 72.3 °F - 64.2 °F 76% 30.15 in 10.0 mi Calm Calm - N/A   Clear
8:55 AM 73.9 °F - 63.7 °F 70% 30.17 in 10.0 mi South 4.6 mph - N/A   Clear
9:15 AM 75.2 °F - 64.0 °F 68% 30.17 in 10.0 mi Calm Calm - N/A   Clear
9:35 AM 76.3 °F - 64.0 °F 66% 30.16 in 10.0 mi South 4.6 mph - N/A   Clear
9:55 AM 77.4 °F - 63.7 °F 63% 30.15 in 10.0 mi South 3.5 mph - N/A   Clear
10:15 AM 77.9 °F - 63.3 °F 61% 30.15 in 10.0 mi ESE 3.5 mph - N/A   Clear
10:35 AM 78.8 °F - 62.6 °F 57% 30.15 in 10.0 mi SE 4.6 mph - N/A   Clear
10:55 AM 79.5 °F - 62.1 °F 55% 30.16 in 10.0 mi SSE 4.6 mph - N/A   Clear
11:15 AM 79.7 °F - 61.3 °F 53% 30.16 in 10.0 mi SE 4.6 mph - N/A   Clear
11:35 AM 80.4 °F 81.2 °F 60.1 °F 50% 30.15 in 10.0 mi ESE 4.6 mph - N/A   Clear
11:55 AM 81.0 °F 81.6 °F 60.1 °F 49% 30.14 in 10.0 mi SE 4.6 mph - N/A   Clear
12:15 PM 81.1 °F 81.9 °F 60.8 °F 50% 30.15 in 10.0 mi ESE 5.8 mph - N/A   Clear
12:35 PM 81.1 °F 81.9 °F 61.0 °F 50% 30.14 in 10.0 mi ESE 5.8 mph - N/A   Clear
12:55 PM 81.5 °F 82.0 °F 59.9 °F 48% 30.13 in 10.0 mi Calm Calm - N/A   Clear
1:15 PM 81.9 °F 82.2 °F 60.1 °F 47% 30.13 in 10.0 mi ESE 3.5 mph - N/A   Clear
1:35 PM 82.6 °F 82.9 °F 60.4 °F 47% 30.13 in 10.0 mi SE 6.9 mph - N/A   Clear
1:55 PM 82.9 °F 82.8 °F 58.8 °F 44% 30.13 in 10.0 mi SE 4.6 mph - N/A   Clear
2:15 PM 83.5 °F 83.6 °F 60.3 °F 45% 30.12 in 10.0 mi SSE 5.8 mph - N/A   Clear
2:35 PM 83.7 °F 83.6 °F 59.7 °F 44% 30.13 in 10.0 mi East 10.4 mph - N/A   Clear
2:55 PM 84.2 °F 83.8 °F 58.8 °F 42% 30.13 in 10.0 mi ESE 6.9 mph - N/A   Clear
3:15 PM 84.4 °F 84.0 °F 58.6 °F 42% 30.12 in 10.0 mi East 8.1 mph - N/A   Clear
3:35 PM 84.2 °F 83.5 °F 57.7 °F 40% 30.12 in 10.0 mi ESE 9.2 mph - N/A   Clear
3:55 PM 84.4 °F 84.0 °F 58.8 °F 42% 30.11 in 10.0 mi East 5.8 mph - N/A   Clear
4:15 PM 84.4 °F 84.0 °F 59.2 °F 42% 30.11 in 10.0 mi ESE 5.8 mph - N/A   Clear
4:35 PM 84.4 °F 84.2 °F 59.5 °F 43% 30.11 in 10.0 mi East 8.1 mph - N/A   Clear
4:55 PM 84.4 °F 84.0 °F 59.2 °F 42% 30.10 in 10.0 mi Calm Calm - N/A   Clear
5:15 PM 84.6 °F 84.6 °F 60.4 °F 44% 30.10 in 10.0 mi ESE 4.6 mph - N/A   Scattered Clouds
5:35 PM 84.0 °F 84.4 °F 61.2 °F 46% 30.10 in 10.0 mi ESE 6.9 mph - N/A   Scattered Clouds
5:55 PM 83.5 °F 83.6 °F 59.9 °F 45% 30.09 in 10.0 mi ESE 4.6 mph - N/A   Scattered Clouds
6:15 PM 83.3 °F 83.2 °F 59.0 °F 44% 30.08 in 10.0 mi ESE 6.9 mph - N/A   Clear
6:35 PM 82.9 °F 83.0 °F 59.4 °F 45% 30.09 in 10.0 mi East 6.9 mph - N/A   Clear
6:55 PM 82.4 °F 82.6 °F 59.9 °F 46% 30.09 in 10.0 mi ESE 6.9 mph - N/A   Clear
7:15 PM 81.9 °F 82.2 °F 60.1 °F 47% 30.09 in 10.0 mi ESE 5.8 mph - N/A   Clear
7:35 PM 80.6 °F 81.5 °F 61.0 °F 51% 30.09 in 10.0 mi ESE 4.6 mph - N/A   Clear
7:55 PM 78.8 °F - 63.1 °F 59% 30.09 in 10.0 mi ESE 4.6 mph - N/A   Clear
8:15 PM 76.6 °F - 64.4 °F 66% 30.09 in 10.0 mi ESE 4.6 mph - N/A   Clear
8:35 PM 74.5 °F - 64.6 °F 71% 30.10 in 10.0 mi ESE 5.8 mph - N/A   Clear
8:55 PM 73.4 °F - 64.0 °F 72% 30.10 in 10.0 mi East 4.6 mph - N/A   Clear
9:15 PM 73.6 °F - 63.5 °F 71% 30.10 in 10.0 mi ESE 6.9 mph - N/A   Clear
9:35 PM 72.0 °F - 63.5 °F 75% 30.11 in 10.0 mi ESE 4.6 mph - N/A   Clear
9:55 PM 71.1 °F - 63.7 °F 77% 30.12 in 10.0 mi ESE 4.6 mph - N/A   Clear
10:15 PM 69.6 °F - 63.3 °F 80% 30.12 in 10.0 mi East 4.6 mph - N/A   Clear
10:35 PM 67.6 °F - 63.1 °F 85% 30.12 in 10.0 mi East 6.9 mph - N/A   Clear
10:55 PM 68.7 °F - 63.5 °F 83% 30.13 in 10.0 mi ENE 4.6 mph - N/A   Clear
11:15 PM 68.7 °F - 63.5 °F 83% 30.12 in 10.0 mi East 4.6 mph - N/A   Clear
11:35 PM 67.8 °F - 63.1 °F 85% 30.12 in 10.0 mi ENE 3.5 mph - N/A   Clear
11:55 PM 67.5 °F - 63.0 °F 85% 30.13 in 10.0 mi Calm Calm - N/A   Clear